Hourly Data Report for October 04, 2017

All times are specified in Local Standard Time (LST). Add 1 hour to adjust for Daylight Saving Time where and when it is observed.

POINT ATKINSON
BRITISH COLUMBIA

49°19'49.300" N
123°15'53.000" W
14.00 m
1106200
71037
WSB

Download Data

Hourly Data (October 2017)
Hourly Data Report for October 4, 2017
Temp Definition
°C
Dew Point Temp Definition
°C
Rel Hum Definition
%
Wind Dir Definition
10's deg

Wind Spd Definition
km/h
Visibility Definition
km
Stn Press Definition
kPa
Hmdx Definition


Wind Chill Definition


Weather Definition


TIME
00:00 11.1 6.4 73 0 1   102.06     LegendNANA
01:00 10.9 6.5 74 8 4   102.06     LegendNANA
02:00 10.7 5.7 71 9 4   102.05     LegendNANA
03:00 10.4 6.1 75 9 3   102.03     LegendNANA
04:00 10.2 6.2 76 7 4   101.98     LegendNANA
05:00 9.5 6.2 80 10 4   101.94     LegendNANA
06:00 9.6 6.2 80 6 3   101.93     LegendNANA
07:00 10.9 6.9 76 18 2   101.94     LegendNANA
08:00 11.9 7.1 72 12 3   101.96     LegendNANA
09:00 11.6 7.0 74 10 5   101.95     LegendNANA
10:00 12.1 5.9 66 9 10   101.94     LegendNANA
11:00 14.2 6.2 59 17 3   101.93     LegendNANA
12:00 12.3 8.0 75 27 13   101.89     LegendNANA
13:00 12.6 8.3 75 28 10   101.89     LegendNANA
14:00 13.1 9.2 77 29 6   101.89     LegendNANA
15:00 13.4 8.0 70 30 8   101.86     LegendNANA
16:00 14.8 1.7 41 30 11   101.82     LegendNANA
17:00 14.3 4.0 50 30 10   101.79     LegendNANA
18:00 13.1 5.3 59 8 2   101.80     LegendNANA
19:00 13.4 4.4 54 32 2   101.82     LegendNANA
20:00 12.5 2.0 49 0 1   101.84     LegendNANA
21:00 12.3 6.5 68 7 4   101.83     LegendNANA
22:00 12.1 5.7 65 9 3   101.86     LegendNANA
23:00 11.6 5.7 67   0   101.89     LegendNANA

Notes on Data Quality.

Legend

  • E = Estimated
  • M = Missing
  • NA = Not Available
  • ‡ = Partner data that is not subject to review by the National Climate Archives
Date modified: